Time,TemperatureF,DewpointF,PressureIn,WindDirection,WindDirectionDegrees,WindSpeedMPH,WindSpeedGustMPH,Humidity,HourlyPrecipIn,Conditions,Clouds,dailyrainin,SolarRadiationWatts/m^2,SoftwareType,DateUTC
2013-09-08 00:01:00,54.4,43.3,30.16,SE,132,2.0,4.0,66,0.00,,,0.00,0,LWC V2.00 B727,2013-09-08 06:01:00,
2013-09-08 00:06:00,54.5,43.4,30.17,SE,132,3.0,3.0,66,0.00,,,0.00,0,LWC V2.00 B727,2013-09-08 06:06:00,
2013-09-08 00:11:00,54.2,43.9,30.17,SSE,165,1.0,2.0,68,0.00,,,0.00,0,LWC V2.00 B727,2013-09-08 06:11:00,
2013-09-08 00:16:00,53.9,43.2,30.17,SSE,155,2.0,3.0,67,0.00,,,0.00,0,LWC V2.00 B727,2013-09-08 06:16:00,
2013-09-08 00:21:00,53.8,43.5,30.17,SSE,155,2.0,3.0,68,0.00,,,0.00,0,LWC V2.00 B727,2013-09-08 06:21:00,
2013-09-08 00:26:00,53.9,43.2,30.16,SSE,150,3.0,6.0,67,0.00,,,0.00,0,LWC V2.00 B727,2013-09-08 06:26:00,
2013-09-08 00:31:00,54.2,43.1,30.17,SSE,155,2.0,3.0,66,0.00,,,0.00,0,LWC V2.00 B727,2013-09-08 06:31:00,
2013-09-08 00:36:00,54.4,43.3,30.17,SSE,154,2.0,4.0,66,0.00,,,0.00,0,LWC V2.00 B727,2013-09-08 06:36:00,
2013-09-08 00:41:00,54.6,42.7,30.17,SSE,152,0.0,2.0,64,0.00,,,0.00,0,LWC V2.00 B727,2013-09-08 06:41:00,
2013-09-08 00:46:00,54.8,42.9,30.17,SSE,153,0.0,2.0,64,0.00,,,0.00,0,LWC V2.00 B727,2013-09-08 06:46:00,
2013-09-08 00:51:00,54.9,43.4,30.17,SSE,152,2.0,3.0,65,0.00,,,0.00,0,LWC V2.00 B727,2013-09-08 06:51:00,
2013-09-08 00:56:00,55.0,43.0,30.17,SSE,153,0.0,2.0,64,0.00,,,0.00,0,LWC V2.00 B727,2013-09-08 06:56:00,
2013-09-08 01:01:00,54.9,43.0,30.18,SSE,153,0.0,0.0,64,0.00,,,0.00,0,LWC V2.00 B727,2013-09-08 07:01:00,
2013-09-08 01:06:00,54.7,42.8,30.18,SSE,153,1.0,2.0,64,0.00,,,0.00,0,LWC V2.00 B727,2013-09-08 07:06:00,
2013-09-08 01:11:00,54.3,43.2,30.18,SSE,153,1.0,3.0,66,0.00,,,0.00,0,LWC V2.00 B727,2013-09-08 07:11:00,
2013-09-08 01:16:00,54.0,43.3,30.18,SSE,153,2.0,2.0,67,0.00,,,0.00,0,LWC V2.00 B727,2013-09-08 07:16:00,
2013-09-08 01:21:00,53.6,43.3,30.18,SSE,152,3.0,5.0,68,0.00,,,0.00,0,LWC V2.00 B727,2013-09-08 07:21:00,
2013-09-08 01:26:00,53.1,42.8,30.18,SSE,152,3.0,4.0,68,0.00,,,0.00,0,LWC V2.00 B727,2013-09-08 07:26:00,
2013-09-08 01:31:00,52.8,42.9,30.18,SSE,150,5.0,6.0,69,0.00,,,0.00,0,LWC V2.00 B727,2013-09-08 07:31:00,
2013-09-08 01:36:00,52.6,42.7,30.18,SE,143,3.0,6.0,69,0.00,,,0.00,0,LWC V2.00 B727,2013-09-08 07:36:00,
2013-09-08 01:41:00,52.4,42.5,30.18,SE,141,4.0,5.0,69,0.00,,,0.00,0,LWC V2.00 B727,2013-09-08 07:41:00,
2013-09-08 01:46:00,52.4,42.5,30.18,SE,140,4.0,4.0,69,0.00,,,0.00,0,LWC V2.00 B727,2013-09-08 07:46:00,
2013-09-08 01:51:00,52.4,42.5,30.18,SE,140,4.0,6.0,69,0.00,,,0.00,0,LWC V2.00 B727,2013-09-08 07:51:00,
2013-09-08 01:56:00,52.5,42.6,30.18,SE,140,4.0,6.0,69,0.00,,,0.00,0,LWC V2.00 B727,2013-09-08 07:56:00,
2013-09-08 02:01:00,52.6,42.7,30.18,SE,138,7.0,7.0,69,0.00,,,0.00,0,LWC V2.00 B727,2013-09-08 08:01:00,
2013-09-08 02:06:00,52.7,42.4,30.18,SE,143,3.0,5.0,68,0.00,,,0.00,0,LWC V2.00 B727,2013-09-08 08:06:00,
2013-09-08 02:11:00,52.8,42.5,30.18,SE,142,2.0,6.0,68,0.00,,,0.00,0,LWC V2.00 B727,2013-09-08 08:11:00,
2013-09-08 02:16:00,52.9,42.6,30.17,SE,128,3.0,6.0,68,0.00,,,0.00,0,LWC V2.00 B727,2013-09-08 08:16:00,
2013-09-08 02:21:00,52.9,42.2,30.17,SE,129,4.0,5.0,67,0.00,,,0.00,0,LWC V2.00 B727,2013-09-08 08:21:00,
2013-09-08 02:26:00,52.9,42.6,30.17,SE,130,4.0,7.0,68,0.00,,,0.00,0,LWC V2.00 B727,2013-09-08 08:26:00,
2013-09-08 02:31:00,52.9,42.2,30.17,SE,132,4.0,6.0,67,0.00,,,0.00,0,LWC V2.00 B727,2013-09-08 08:31:00,
2013-09-08 02:36:00,53.1,42.4,30.17,SE,132,3.0,5.0,67,0.00,,,0.00,0,LWC V2.00 B727,2013-09-08 08:36:00,
2013-09-08 02:41:00,53.1,42.4,30.17,SE,133,3.0,4.0,67,0.00,,,0.00,0,LWC V2.00 B727,2013-09-08 08:41:00,
2013-09-08 02:46:00,53.0,42.3,30.17,SE,133,4.0,6.0,67,0.00,,,0.00,0,LWC V2.00 B727,2013-09-08 08:46:00,
2013-09-08 02:51:00,52.8,42.5,30.17,SE,132,2.0,4.0,68,0.00,,,0.00,0,LWC V2.00 B727,2013-09-08 08:51:00,
2013-09-08 02:56:00,52.6,42.3,30.17,SE,132,1.0,4.0,68,0.00,,,0.00,0,LWC V2.00 B727,2013-09-08 08:56:00,
2013-09-08 03:01:00,52.3,42.1,30.17,SE,132,1.0,2.0,68,0.00,,,0.00,0,LWC V2.00 B727,2013-09-08 09:01:00,
2013-09-08 03:06:00,51.9,42.1,30.17,SE,132,0.0,3.0,69,0.00,,,0.00,0,LWC V2.00 B727,2013-09-08 09:06:00,
2013-09-08 03:11:00,51.6,42.1,30.17,SE,132,0.0,1.0,70,0.00,,,0.00,0,LWC V2.00 B727,2013-09-08 09:11:00,
2013-09-08 03:16:00,51.4,41.9,30.17,SE,132,0.0,1.0,70,0.00,,,0.00,0,LWC V2.00 B727,2013-09-08 09:16:00,
2013-09-08 03:21:00,51.0,41.9,30.17,SE,132,1.0,3.0,71,0.00,,,0.00,0,LWC V2.00 B727,2013-09-08 09:21:00,
2013-09-08 03:26:00,50.7,42.0,30.17,SE,132,2.0,2.0,72,0.00,,,0.00,0,LWC V2.00 B727,2013-09-08 09:26:00,
2013-09-08 03:31:00,50.4,41.7,30.17,SE,132,0.0,3.0,72,0.00,,,0.00,0,LWC V2.00 B727,2013-09-08 09:31:00,
2013-09-08 03:36:00,50.2,41.9,30.17,SE,132,0.0,2.0,73,0.00,,,0.00,0,LWC V2.00 B727,2013-09-08 09:36:00,
2013-09-08 03:41:00,50.0,41.7,30.16,SE,132,2.0,2.0,73,0.00,,,0.00,0,LWC V2.00 B727,2013-09-08 09:41:00,
2013-09-08 03:46:00,49.9,41.6,30.16,SE,132,0.0,3.0,73,0.00,,,0.00,0,LWC V2.00 B727,2013-09-08 09:46:00,
2013-09-08 03:51:00,49.8,41.8,30.16,SE,132,2.0,4.0,74,0.00,,,0.00,0,LWC V2.00 B727,2013-09-08 09:51:00,
2013-09-08 03:56:00,49.8,41.8,30.16,SE,132,2.0,3.0,74,0.00,,,0.00,0,LWC V2.00 B727,2013-09-08 09:56:00,
2013-09-08 04:01:00,49.9,41.9,30.16,SE,132,2.0,3.0,74,0.00,,,0.00,0,LWC V2.00 B727,2013-09-08 10:01:00,
2013-09-08 04:06:00,49.9,41.9,30.16,SE,132,0.0,2.0,74,0.00,,,0.00,0,LWC V2.00 B727,2013-09-08 10:06:00,
2013-09-08 04:11:00,50.0,41.7,30.16,SE,132,3.0,3.0,73,0.00,,,0.00,0,LWC V2.00 B727,2013-09-08 10:11:00,
2013-09-08 04:16:00,50.1,41.8,30.16,SE,132,3.0,3.0,73,0.00,,,0.00,0,LWC V2.00 B727,2013-09-08 10:16:00,
2013-09-08 04:21:00,50.3,42.0,30.16,SE,132,2.0,5.0,73,0.00,,,0.00,0,LWC V2.00 B727,2013-09-08 10:21:00,
2013-09-08 04:26:00,50.4,41.7,30.16,SE,132,4.0,5.0,72,0.00,,,0.00,0,LWC V2.00 B727,2013-09-08 10:26:00,
2013-09-08 04:31:00,50.6,41.9,30.15,SE,133,3.0,5.0,72,0.00,,,0.00,0,LWC V2.00 B727,2013-09-08 10:31:00,
2013-09-08 04:36:00,50.8,41.7,30.15,SE,133,4.0,7.0,71,0.00,,,0.00,0,LWC V2.00 B727,2013-09-08 10:36:00,
2013-09-08 04:41:00,51.0,41.9,30.15,SE,133,1.0,5.0,71,0.00,,,0.00,0,LWC V2.00 B727,2013-09-08 10:41:00,
2013-09-08 04:46:00,51.1,42.0,30.15,SE,133,0.0,3.0,71,0.00,,,0.00,0,LWC V2.00 B727,2013-09-08 10:46:00,
2013-09-08 04:51:00,51.2,41.8,30.15,SE,133,0.0,4.0,70,0.00,,,0.00,0,LWC V2.00 B727,2013-09-08 10:51:00,
2013-09-08 04:56:00,51.4,41.6,30.15,SE,132,0.0,3.0,69,0.00,,,0.00,0,LWC V2.00 B727,2013-09-08 10:56:00,
2013-09-08 05:01:00,51.5,41.7,30.15,SE,132,1.0,3.0,69,0.00,,,0.00,0,LWC V2.00 B727,2013-09-08 11:01:00,
2013-09-08 05:06:00,51.5,41.7,30.15,SE,132,1.0,2.0,69,0.00,,,0.00,0,LWC V2.00 B727,2013-09-08 11:06:00,
2013-09-08 05:11:00,51.5,41.3,30.14,SE,132,0.0,0.0,68,0.00,,,0.00,0,LWC V2.00 B727,2013-09-08 11:11:00,
2013-09-08 05:16:00,51.5,41.3,30.15,SE,132,0.0,0.0,68,0.00,,,0.00,0,LWC V2.00 B727,2013-09-08 11:16:00,
2013-09-08 05:21:00,51.4,41.6,30.15,SE,132,0.0,0.0,69,0.00,,,0.00,0,LWC V2.00 B727,2013-09-08 11:21:00,
2013-09-08 05:26:00,51.3,41.9,30.15,SE,132,0.0,0.0,70,0.00,,,0.00,0,LWC V2.00 B727,2013-09-08 11:26:00,
2013-09-08 05:31:00,51.1,42.0,30.14,SE,132,0.0,0.0,71,0.00,,,0.00,0,LWC V2.00 B727,2013-09-08 11:31:00,
2013-09-08 05:36:00,50.9,41.5,30.15,SE,132,0.0,0.0,70,0.00,,,0.00,0,LWC V2.00 B727,2013-09-08 11:36:00,
2013-09-08 05:41:00,50.8,41.4,30.14,SE,132,0.0,0.0,70,0.00,,,0.00,0,LWC V2.00 B727,2013-09-08 11:41:00,
2013-09-08 05:46:00,50.5,41.1,30.15,SE,132,0.0,0.0,70,0.00,,,0.00,0,LWC V2.00 B727,2013-09-08 11:46:00,
2013-09-08 05:51:00,50.4,41.4,30.15,SE,132,0.0,0.0,71,0.00,,,0.00,0,LWC V2.00 B727,2013-09-08 11:51:00,
2013-09-08 05:56:00,50.2,41.2,30.15,SE,132,0.0,0.0,71,0.00,,,0.00,0,LWC V2.00 B727,2013-09-08 11:56:00,
2013-09-08 06:01:00,50.0,41.3,30.15,SE,132,0.0,0.0,72,0.00,,,0.00,0,LWC V2.00 B727,2013-09-08 12:01:00,
2013-09-08 06:06:00,49.7,41.4,30.15,SE,132,0.0,0.0,73,0.00,,,0.00,0,LWC V2.00 B727,2013-09-08 12:06:00,
2013-09-08 06:11:00,49.5,41.6,30.15,SE,132,0.0,0.0,74,0.00,,,0.00,0,LWC V2.00 B727,2013-09-08 12:11:00,
2013-09-08 06:16:00,49.4,41.5,30.15,SE,132,0.0,0.0,74,0.00,,,0.00,0,LWC V2.00 B727,2013-09-08 12:16:00,
2013-09-08 06:21:00,49.2,41.3,30.15,SE,132,0.0,0.0,74,0.00,,,0.00,0,LWC V2.00 B727,2013-09-08 12:21:00,
2013-09-08 06:26:00,49.0,41.1,30.15,SE,132,0.0,2.0,74,0.00,,,0.00,0,LWC V2.00 B727,2013-09-08 12:26:00,
2013-09-08 06:31:00,48.7,40.8,30.15,SE,132,1.0,2.0,74,0.00,,,0.00,0,LWC V2.00 B727,2013-09-08 12:31:00,
2013-09-08 06:36:00,48.6,40.7,30.15,SE,132,2.0,4.0,74,0.00,,,0.00,0,LWC V2.00 B727,2013-09-08 12:36:00,
2013-09-08 06:41:00,48.6,40.7,30.15,SE,132,2.0,3.0,74,0.00,,,0.00,0,LWC V2.00 B727,2013-09-08 12:41:00,
2013-09-08 06:46:00,48.7,40.8,30.15,SE,132,1.0,3.0,74,0.00,,,0.00,7,LWC V2.00 B727,2013-09-08 12:46:00,
2013-09-08 06:51:00,48.9,41.0,30.15,SE,132,3.0,4.0,74,0.00,,,0.00,9,LWC V2.00 B727,2013-09-08 12:51:00,
2013-09-08 06:56:00,49.0,41.1,30.15,SE,133,4.0,7.0,74,0.00,,,0.00,12,LWC V2.00 B727,2013-09-08 12:56:00,
2013-09-08 07:01:00,49.2,40.9,30.15,SE,135,6.0,7.0,73,0.00,,,0.00,14,LWC V2.00 B727,2013-09-08 13:01:00,
2013-09-08 07:06:00,49.7,41.0,30.15,SE,144,4.0,7.0,72,0.00,,,0.00,16,LWC V2.00 B727,2013-09-08 13:06:00,
2013-09-08 07:11:00,50.2,41.5,30.15,SE,142,6.0,7.0,72,0.00,,,0.00,18,LWC V2.00 B727,2013-09-08 13:11:00,
2013-09-08 07:16:00,50.7,41.6,30.15,SE,132,3.0,6.0,71,0.00,,,0.00,25,LWC V2.00 B727,2013-09-08 13:16:00,
2013-09-08 07:21:00,51.2,41.8,30.16,SE,133,5.0,7.0,70,0.00,,,0.00,70,LWC V2.00 B727,2013-09-08 13:21:00,
2013-09-08 07:26:00,51.7,42.2,30.15,SE,130,3.0,7.0,70,0.00,,,0.00,88,LWC V2.00 B727,2013-09-08 13:26:00,
2013-09-08 07:31:00,52.2,42.7,30.16,SE,132,5.0,7.0,70,0.00,,,0.00,109,LWC V2.00 B727,2013-09-08 13:31:00,
2013-09-08 07:36:00,52.8,42.9,30.16,SE,140,3.0,6.0,69,0.00,,,0.00,127,LWC V2.00 B727,2013-09-08 13:36:00,
2013-09-08 07:41:00,53.3,43.4,30.16,SE,136,3.0,4.0,69,0.00,,,0.00,148,LWC V2.00 B727,2013-09-08 13:41:00,
2013-09-08 07:46:00,53.8,44.2,30.16,SE,136,1.0,2.0,70,0.00,,,0.00,169,LWC V2.00 B727,2013-09-08 13:46:00,
2013-09-08 07:51:00,54.3,44.3,30.16,SE,136,0.0,3.0,69,0.00,,,0.00,190,LWC V2.00 B727,2013-09-08 13:51:00,
2013-09-08 07:56:00,54.9,44.9,30.16,SE,136,3.0,3.0,69,0.00,,,0.00,211,LWC V2.00 B727,2013-09-08 13:56:00,
2013-09-08 08:01:00,55.6,45.2,30.15,SE,136,1.0,3.0,68,0.00,,,0.00,230,LWC V2.00 B727,2013-09-08 14:01:00,
2013-09-08 08:06:00,56.3,45.5,30.15,SE,137,1.0,2.0,67,0.00,,,0.00,248,LWC V2.00 B727,2013-09-08 14:06:00,
2013-09-08 08:11:00,57.0,46.2,30.15,SE,137,0.0,2.0,67,0.00,,,0.00,264,LWC V2.00 B727,2013-09-08 14:11:00,
2013-09-08 08:16:00,57.8,46.9,30.15,SE,137,0.0,0.0,67,0.00,,,0.00,281,LWC V2.00 B727,2013-09-08 14:16:00,
2013-09-08 08:21:00,58.5,47.2,30.15,SE,137,1.0,2.0,66,0.00,,,0.00,301,LWC V2.00 B727,2013-09-08 14:21:00,
2013-09-08 08:26:00,59.1,46.9,30.15,SE,137,0.0,1.0,64,0.00,,,0.00,320,LWC V2.00 B727,2013-09-08 14:26:00,
2013-09-08 08:31:00,60.0,47.8,30.15,SE,137,0.0,0.0,64,0.00,,,0.00,338,LWC V2.00 B727,2013-09-08 14:31:00,
2013-09-08 08:36:00,60.7,47.6,30.15,SE,137,0.0,1.0,62,0.00,,,0.00,355,LWC V2.00 B727,2013-09-08 14:36:00,
2013-09-08 08:41:00,61.4,47.4,30.15,SE,137,0.0,2.0,60,0.00,,,0.00,373,LWC V2.00 B727,2013-09-08 14:41:00,
2013-09-08 08:46:00,62.2,49.0,30.15,SE,137,1.0,1.0,62,0.00,,,0.00,387,LWC V2.00 B727,2013-09-08 14:46:00,
2013-09-08 08:51:00,62.9,47.9,30.15,SE,136,0.0,3.0,58,0.00,,,0.00,404,LWC V2.00 B727,2013-09-08 14:51:00,
2013-09-08 08:56:00,63.6,48.5,30.15,SE,132,0.0,3.0,58,0.00,,,0.00,422,LWC V2.00 B727,2013-09-08 14:56:00,
2013-09-08 09:01:00,64.4,47.4,30.15,SE,132,0.0,0.0,54,0.00,,,0.00,439,LWC V2.00 B727,2013-09-08 15:01:00,
2013-09-08 09:06:00,65.0,45.9,30.15,SE,132,0.0,2.0,50,0.00,,,0.00,459,LWC V2.00 B727,2013-09-08 15:06:00,
2013-09-08 09:11:00,65.6,48.0,30.15,SE,132,0.0,0.0,53,0.00,,,0.00,475,LWC V2.00 B727,2013-09-08 15:11:00,
2013-09-08 09:16:00,66.2,46.5,30.15,SE,131,0.0,0.0,49,0.00,,,0.00,494,LWC V2.00 B727,2013-09-08 15:16:00,
2013-09-08 09:21:00,66.7,45.8,30.15,ESE,121,0.0,1.0,47,0.00,,,0.00,508,LWC V2.00 B727,2013-09-08 15:21:00,
2013-09-08 09:26:00,67.2,46.8,30.15,ESE,121,0.0,2.0,48,0.00,,,0.00,526,LWC V2.00 B727,2013-09-08 15:26:00,
2013-09-08 09:32:00,67.8,46.3,30.15,ESE,121,1.0,3.0,46,0.00,,,0.00,540,LWC V2.00 B727,2013-09-08 15:32:00,
2013-09-08 09:37:00,68.3,46.7,30.15,ESE,119,0.0,2.0,46,0.00,,,0.00,557,LWC V2.00 B727,2013-09-08 15:37:00,
2013-09-08 09:42:00,68.7,48.2,30.15,ESE,122,0.0,1.0,48,0.00,,,0.00,571,LWC V2.00 B727,2013-09-08 15:42:00,
2013-09-08 09:47:00,69.2,47.5,30.14,ESE,116,0.0,2.0,46,0.00,,,0.00,585,LWC V2.00 B727,2013-09-08 15:47:00,
2013-09-08 09:52:00,69.7,48.6,30.14,ESE,111,1.0,1.0,47,0.00,,,0.00,603,LWC V2.00 B727,2013-09-08 15:52:00,
2013-09-08 09:57:00,70.3,48.5,30.14,ESE,110,0.0,0.0,46,0.00,,,0.00,613,LWC V2.00 B727,2013-09-08 15:57:00,
2013-09-08 10:02:00,70.9,48.5,30.14,ESE,111,0.0,1.0,45,0.00,,,0.00,624,LWC V2.00 B727,2013-09-08 16:02:00,
2013-09-08 10:07:00,71.4,49.5,30.14,WSW,252,0.0,8.0,46,0.00,,,0.00,642,LWC V2.00 B727,2013-09-08 16:07:00,
2013-09-08 10:12:00,71.8,49.3,30.14,SW,229,1.0,4.0,45,0.00,,,0.00,657,LWC V2.00 B727,2013-09-08 16:12:00,
2013-09-08 10:17:00,72.1,50.2,30.14,SW,215,7.0,7.0,46,0.00,,,0.00,673,LWC V2.00 B727,2013-09-08 16:17:00,
2013-09-08 10:22:00,72.3,49.2,30.13,South,189,2.0,6.0,44,0.00,,,0.00,684,LWC V2.00 B727,2013-09-08 16:22:00,
2013-09-08 10:27:00,72.6,50.6,30.13,SSW,205,3.0,7.0,46,0.00,,,0.00,696,LWC V2.00 B727,2013-09-08 16:27:00,
2013-09-08 10:32:00,72.7,48.9,30.13,West,260,3.0,6.0,43,0.00,,,0.00,705,LWC V2.00 B727,2013-09-08 16:32:00,
2013-09-08 10:37:00,72.6,48.8,30.13,West,268,2.0,7.0,43,0.00,,,0.00,721,LWC V2.00 B727,2013-09-08 16:37:00,
2013-09-08 10:42:00,72.7,50.1,30.12,West,261,0.0,6.0,45,0.00,,,0.00,733,LWC V2.00 B727,2013-09-08 16:42:00,
2013-09-08 10:47:00,73.0,49.8,30.12,SW,229,4.0,6.0,44,0.00,,,0.00,745,LWC V2.00 B727,2013-09-08 16:47:00,
2013-09-08 10:52:00,72.9,50.3,30.12,NNW,332,0.0,5.0,45,0.00,,,0.00,759,LWC V2.00 B727,2013-09-08 16:52:00,
2013-09-08 10:57:00,72.8,49.6,30.12,North,0,5.0,5.0,44,0.00,,,0.00,779,LWC V2.00 B727,2013-09-08 16:57:00,
2013-09-08 11:02:00,72.7,48.9,30.11,WNW,290,5.0,7.0,43,0.00,,,0.00,782,LWC V2.00 B727,2013-09-08 17:02:00,
2013-09-08 11:07:00,72.7,49.5,30.11,SW,223,1.0,5.0,44,0.00,,,0.00,802,LWC V2.00 B727,2013-09-08 17:07:00,
2013-09-08 11:12:00,73.0,49.2,30.11,WNW,302,4.0,7.0,43,0.00,,,0.00,837,LWC V2.00 B727,2013-09-08 17:12:00,
2013-09-08 11:17:00,73.0,51.0,30.11,WNW,299,6.0,6.0,46,0.00,,,0.00,127,LWC V2.00 B727,2013-09-08 17:17:00,
2013-09-08 11:22:00,72.5,48.7,30.10,NNW,330,3.0,6.0,43,0.00,,,0.00,176,LWC V2.00 B727,2013-09-08 17:22:00,
2013-09-08 11:27:00,72.7,50.1,30.10,WNW,296,4.0,9.0,45,0.00,,,0.00,979,LWC V2.00 B727,2013-09-08 17:27:00,
2013-09-08 11:32:00,73.8,51.1,30.10,WNW,288,0.0,1.0,45,0.00,,,0.00,1035,LWC V2.00 B727,2013-09-08 17:32:00,
2013-09-08 11:37:00,75.1,51.7,30.10,WSW,256,4.0,4.0,44,0.00,,,0.00,1035,LWC V2.00 B727,2013-09-08 17:37:00,
2013-09-08 11:42:00,75.8,49.7,30.10,SW,215,2.0,8.0,40,0.00,,,0.00,668,LWC V2.00 B727,2013-09-08 17:42:00,
2013-09-08 11:47:00,75.6,49.6,30.10,SSW,206,4.0,7.0,40,0.00,,,0.00,325,LWC V2.00 B727,2013-09-08 17:47:00,
2013-09-08 11:52:00,75.2,49.9,30.10,SW,223,5.0,5.0,41,0.00,,,0.00,232,LWC V2.00 B727,2013-09-08 17:52:00,
2013-09-08 11:57:00,74.6,49.3,30.10,SW,220,0.0,1.0,41,0.00,,,0.00,311,LWC V2.00 B727,2013-09-08 17:57:00,
2013-09-08 12:02:00,74.4,49.1,30.09,West,267,7.0,9.0,41,0.00,,,0.00,1078,LWC V2.00 B727,2013-09-08 18:02:00,
2013-09-08 12:07:00,74.2,49.6,30.09,SSW,207,3.0,7.0,42,0.00,,,0.00,271,LWC V2.00 B727,2013-09-08 18:07:00,
2013-09-08 12:12:00,74.0,50.7,30.09,West,277,5.0,7.0,44,0.00,,,0.00,353,LWC V2.00 B727,2013-09-08 18:12:00,
2013-09-08 12:17:00,73.5,47.7,30.09,WNW,292,5.0,7.0,40,0.00,,,0.00,167,LWC V2.00 B727,2013-09-08 18:17:00,
2013-09-08 12:22:00,72.8,47.7,30.09,WNW,286,2.0,5.0,41,0.00,,,0.00,214,LWC V2.00 B727,2013-09-08 18:22:00,
2013-09-08 12:27:00,72.3,49.2,30.08,WNW,286,0.0,1.0,44,0.00,,,0.00,279,LWC V2.00 B727,2013-09-08 18:27:00,
2013-09-08 12:32:00,72.1,47.7,30.08,WNW,286,4.0,4.0,42,0.00,,,0.00,218,LWC V2.00 B727,2013-09-08 18:32:00,
2013-09-08 12:37:00,71.8,48.1,30.08,WNW,290,6.0,6.0,43,0.00,,,0.00,214,LWC V2.00 B727,2013-09-08 18:37:00,
2013-09-08 12:42:00,71.6,48.5,30.08,NNW,338,3.0,5.0,44,0.00,,,0.00,272,LWC V2.00 B727,2013-09-08 18:42:00,
2013-09-08 12:47:00,71.5,47.2,30.08,NNW,334,0.0,3.0,42,0.00,,,0.00,236,LWC V2.00 B727,2013-09-08 18:47:00,
2013-09-08 12:52:00,71.4,47.1,30.08,NW,314,0.0,5.0,42,0.00,,,0.00,213,LWC V2.00 B727,2013-09-08 18:52:00,
2013-09-08 12:57:00,71.3,47.0,30.08,WNW,299,1.0,6.0,42,0.00,,,0.00,211,LWC V2.00 B727,2013-09-08 18:57:00,
2013-09-08 13:02:00,71.6,49.7,30.07,WNW,300,0.0,0.0,46,0.00,,,0.00,279,LWC V2.00 B727,2013-09-08 19:02:00,
2013-09-08 13:07:00,72.1,47.7,30.07,WNW,300,0.0,1.0,42,0.00,,,0.00,357,LWC V2.00 B727,2013-09-08 19:07:00,
2013-09-08 13:12:00,72.2,47.2,30.07,NNW,333,2.0,3.0,41,0.00,,,0.00,137,LWC V2.00 B727,2013-09-08 19:12:00,
2013-09-08 13:17:00,72.2,49.1,30.07,NNW,329,0.0,0.0,44,0.00,,,0.00,155,LWC V2.00 B727,2013-09-08 19:17:00,
2013-09-08 13:22:00,72.0,47.6,30.07,NNW,329,0.0,1.0,42,0.00,,,0.00,250,LWC V2.00 B727,2013-09-08 19:22:00,
2013-09-08 13:27:00,72.0,50.7,30.07,NW,326,0.0,1.0,47,0.00,,,0.00,383,LWC V2.00 B727,2013-09-08 19:27:00,
2013-09-08 13:32:00,73.1,49.9,30.07,ENE,62,0.0,0.0,44,0.00,,,0.00,995,LWC V2.00 B727,2013-09-08 19:32:00,
2013-09-08 13:37:00,74.0,49.4,30.06,SSW,196,7.0,7.0,42,0.00,,,0.00,295,LWC V2.00 B727,2013-09-08 19:37:00,
2013-09-08 13:42:00,75.0,51.0,30.06,SSW,211,2.0,7.0,43,0.00,,,0.00,1025,LWC V2.00 B727,2013-09-08 19:42:00,
2013-09-08 13:47:00,75.5,49.5,30.06,SSE,167,0.0,3.0,40,0.00,,,0.00,250,LWC V2.00 B727,2013-09-08 19:47:00,
2013-09-08 13:52:00,75.4,49.4,30.06,South,182,0.0,5.0,40,0.00,,,0.00,185,LWC V2.00 B727,2013-09-08 19:52:00,
2013-09-08 13:57:00,75.0,49.0,30.06,West,260,2.0,5.0,40,0.00,,,0.00,257,LWC V2.00 B727,2013-09-08 19:57:00,
2013-09-08 14:02:00,74.7,48.8,30.05,SW,232,0.0,2.0,40,0.00,,,0.00,236,LWC V2.00 B727,2013-09-08 20:02:00,
2013-09-08 14:07:00,74.4,47.8,30.05,WNW,287,1.0,5.0,39,0.00,,,0.00,199,LWC V2.00 B727,2013-09-08 20:07:00,
2013-09-08 14:12:00,74.0,47.5,30.05,West,281,1.0,4.0,39,0.00,,,0.00,171,LWC V2.00 B727,2013-09-08 20:12:00,
2013-09-08 14:17:00,73.6,48.4,30.05,WSW,243,4.0,6.0,41,0.00,,,0.00,174,LWC V2.00 B727,2013-09-08 20:17:00,
2013-09-08 14:22:00,73.2,48.1,30.04,WNW,283,0.0,0.0,41,0.00,,,0.00,181,LWC V2.00 B727,2013-09-08 20:22:00,
2013-09-08 14:27:00,73.1,48.6,30.04,WNW,283,0.0,3.0,42,0.00,,,0.00,158,LWC V2.00 B727,2013-09-08 20:27:00,
2013-09-08 14:32:00,73.0,49.2,30.04,WNW,294,3.0,4.0,43,0.00,,,0.00,185,LWC V2.00 B727,2013-09-08 20:32:00,
2013-09-08 14:37:00,72.9,49.1,30.04,SSE,149,8.0,8.0,43,0.00,,,0.00,176,LWC V2.00 B727,2013-09-08 20:37:00,
2013-09-08 14:42:00,72.6,50.0,30.04,ESE,121,3.0,7.0,45,0.00,,,0.00,213,LWC V2.00 B727,2013-09-08 20:42:00,
2013-09-08 14:47:00,72.0,50.1,30.04,ESE,102,7.0,9.0,46,0.00,,,0.00,192,LWC V2.00 B727,2013-09-08 20:47:00,
2013-09-08 14:52:00,71.0,50.3,30.04,ENE,59,2.0,4.0,48,0.00,,,0.00,209,LWC V2.00 B727,2013-09-08 20:52:00,
2013-09-08 14:57:00,70.3,50.2,30.03,ESE,113,4.0,8.0,49,0.00,,,0.00,255,LWC V2.00 B727,2013-09-08 20:57:00,
2013-09-08 15:02:00,70.2,50.7,30.03,ESE,102,0.0,3.0,50,0.00,,,0.00,436,LWC V2.00 B727,2013-09-08 21:02:00,
2013-09-08 15:07:00,70.4,50.3,30.03,NE,50,0.0,5.0,49,0.00,,,0.00,299,LWC V2.00 B727,2013-09-08 21:07:00,
2013-09-08 15:12:00,70.8,51.2,30.02,ENE,60,2.0,4.0,50,0.00,,,0.00,594,LWC V2.00 B727,2013-09-08 21:12:00,
2013-09-08 15:17:00,71.6,50.9,30.02,NE,51,2.0,4.0,48,0.00,,,0.00,677,LWC V2.00 B727,2013-09-08 21:17:00,
2013-09-08 15:22:00,72.7,53.0,30.02,ENE,57,3.0,5.0,50,0.00,,,0.00,784,LWC V2.00 B727,2013-09-08 21:22:00,
2013-09-08 15:27:00,73.5,50.2,30.02,NE,54,1.0,6.0,44,0.00,,,0.00,227,LWC V2.00 B727,2013-09-08 21:27:00,
2013-09-08 15:32:00,73.3,50.1,30.01,NE,54,3.0,4.0,44,0.00,,,0.00,195,LWC V2.00 B727,2013-09-08 21:32:00,
2013-09-08 15:37:00,72.9,50.3,30.01,NE,56,4.0,5.0,45,0.00,,,0.00,204,LWC V2.00 B727,2013-09-08 21:37:00,
2013-09-08 15:42:00,73.1,51.1,30.01,NE,49,2.0,4.0,46,0.00,,,0.00,798,LWC V2.00 B727,2013-09-08 21:42:00,
2013-09-08 15:47:00,73.5,49.6,30.01,NNE,26,0.0,2.0,43,0.00,,,0.00,250,LWC V2.00 B727,2013-09-08 21:47:00,
2013-09-08 15:52:00,74.0,52.5,30.01,NNW,344,4.0,5.0,47,0.00,,,0.00,276,LWC V2.00 B727,2013-09-08 21:52:00,
2013-09-08 15:57:00,75.2,52.4,30.01,NNW,348,4.0,4.0,45,0.00,,,0.00,844,LWC V2.00 B727,2013-09-08 21:57:00,
2013-09-08 16:02:00,75.8,51.1,30.01,NNW,339,0.0,2.0,42,0.00,,,0.00,251,LWC V2.00 B727,2013-09-08 22:02:00,
2013-09-08 16:07:00,75.6,50.2,30.01,East,82,3.0,3.0,41,0.00,,,0.00,183,LWC V2.00 B727,2013-09-08 22:07:00,
2013-09-08 16:12:00,75.1,48.4,30.01,South,182,6.0,17.0,39,0.00,,,0.00,190,LWC V2.00 B727,2013-09-08 22:12:00,
2013-09-08 16:17:00,73.8,49.3,30.01,SE,140,6.0,10.0,42,0.00,,,0.00,185,LWC V2.00 B727,2013-09-08 22:17:00,
2013-09-08 16:22:00,72.6,48.8,30.01,SE,124,16.0,16.0,43,0.00,,,0.00,167,LWC V2.00 B727,2013-09-08 22:22:00,
2013-09-08 16:27:00,71.3,48.2,30.01,SSE,168,8.0,19.0,44,0.00,,,0.00,155,LWC V2.00 B727,2013-09-08 22:27:00,
2013-09-08 16:32:00,70.2,47.9,30.01,SSE,148,6.0,12.0,45,0.00,,,0.00,149,LWC V2.00 B727,2013-09-08 22:32:00,
2013-09-08 16:37:00,69.5,48.4,30.01,SSE,158,7.0,15.0,47,0.00,,,0.00,142,LWC V2.00 B727,2013-09-08 22:37:00,
2013-09-08 16:42:00,68.8,48.8,30.01,SSE,154,6.0,10.0,49,0.00,,,0.00,146,LWC V2.00 B727,2013-09-08 22:42:00,
2013-09-08 16:47:00,68.2,48.8,30.01,SE,134,9.0,12.0,50,0.00,,,0.00,134,LWC V2.00 B727,2013-09-08 22:47:00,
2013-09-08 16:52:00,67.6,48.8,30.01,South,180,9.0,15.0,51,0.00,,,0.00,121,LWC V2.00 B727,2013-09-08 22:52:00,
2013-09-08 16:57:00,67.1,49.4,30.01,South,178,10.0,10.0,53,0.00,,,0.00,104,LWC V2.00 B727,2013-09-08 22:57:00,
2013-09-08 17:02:00,66.5,50.3,30.01,SE,139,6.0,13.0,56,0.00,,,0.00,91,LWC V2.00 B727,2013-09-08 23:02:00,
2013-09-08 17:07:00,65.5,50.8,30.01,SSE,149,8.0,13.0,59,0.00,,,0.00,74,LWC V2.00 B727,2013-09-08 23:07:00,
2013-09-08 17:12:00,64.6,49.5,30.01,SSW,203,5.0,13.0,58,0.00,,,0.00,63,LWC V2.00 B727,2013-09-08 23:12:00,
2013-09-08 17:17:00,64.2,49.1,30.01,SSW,195,7.0,13.0,58,0.00,,,0.00,56,LWC V2.00 B727,2013-09-08 23:17:00,
2013-09-08 17:22:00,63.6,49.9,30.01,SE,134,8.0,14.0,61,0.00,,,0.00,51,LWC V2.00 B727,2013-09-08 23:22:00,
2013-09-08 17:27:00,63.3,50.1,30.01,SE,140,7.0,10.0,62,0.00,,,0.00,46,LWC V2.00 B727,2013-09-08 23:27:00,
2013-09-08 17:32:00,63.1,49.9,30.01,ESE,121,5.0,10.0,62,0.00,,,0.00,44,LWC V2.00 B727,2013-09-08 23:32:00,
2013-09-08 17:37:00,63.1,49.4,30.01,ESE,122,10.0,11.0,61,0.00,,,0.00,40,LWC V2.00 B727,2013-09-08 23:37:00,
2013-09-08 17:42:00,63.0,50.6,30.01,East,94,6.0,11.0,64,0.00,,,0.00,35,LWC V2.00 B727,2013-09-08 23:42:00,
2013-09-08 17:47:00,62.6,50.2,30.00,East,79,7.0,11.0,64,0.00,,,0.00,32,LWC V2.00 B727,2013-09-08 23:47:00,
2013-09-08 17:52:00,62.3,50.4,30.00,SE,132,7.0,10.0,65,0.00,,,0.00,32,LWC V2.00 B727,2013-09-08 23:52:00,
2013-09-08 17:57:00,62.0,50.9,30.00,ESE,119,10.0,13.0,67,0.00,,,0.00,32,LWC V2.00 B727,2013-09-08 23:57:00,
2013-09-08 18:02:00,61.6,50.5,30.00,East,90,6.0,11.0,67,0.00,,,0.01,28,LWC V2.00 B727,2013-09-09 00:02:00,
2013-09-08 18:07:00,61.4,50.7,30.00,ESE,113,8.0,11.0,68,0.00,,,0.01,28,LWC V2.00 B727,2013-09-09 00:07:00,
2013-09-08 18:12:00,61.5,50.4,30.00,ESE,113,9.0,13.0,67,0.00,,,0.01,28,LWC V2.00 B727,2013-09-09 00:12:00,
2013-09-08 18:17:00,61.7,50.6,30.01,ESE,106,4.0,13.0,67,0.00,,,0.01,30,LWC V2.00 B727,2013-09-09 00:17:00,
2013-09-08 18:22:00,62.0,50.5,30.00,SE,126,9.0,12.0,66,0.00,,,0.01,30,LWC V2.00 B727,2013-09-09 00:22:00,
2013-09-08 18:27:00,62.4,50.1,30.00,East,88,6.0,9.0,64,0.00,,,0.01,25,LWC V2.00 B727,2013-09-09 00:27:00,
2013-09-08 18:32:00,62.9,50.5,30.00,East,94,6.0,8.0,64,0.00,,,0.01,21,LWC V2.00 B727,2013-09-09 00:32:00,
2013-09-08 18:37:00,63.1,50.7,30.01,ESE,102,4.0,8.0,64,0.00,,,0.01,18,LWC V2.00 B727,2013-09-09 00:37:00,
2013-09-08 18:42:00,63.3,50.1,30.00,East,90,6.0,8.0,62,0.00,,,0.01,21,LWC V2.00 B727,2013-09-09 00:42:00,
2013-09-08 18:47:00,63.6,50.3,30.00,East,92,3.0,8.0,62,0.00,,,0.01,19,LWC V2.00 B727,2013-09-09 00:47:00,
2013-09-08 18:52:00,63.9,50.6,30.00,ESE,107,8.0,8.0,62,0.00,,,0.01,18,LWC V2.00 B727,2013-09-09 00:52:00,
2013-09-08 18:57:00,64.1,50.8,30.00,ESE,102,3.0,7.0,62,0.00,,,0.01,9,LWC V2.00 B727,2013-09-09 00:57:00,
2013-09-08 19:02:00,64.1,50.4,30.01,East,97,5.0,7.0,61,0.00,,,0.01,5,LWC V2.00 B727,2013-09-09 01:02:00,
2013-09-08 19:07:00,64.1,50.4,30.01,ESE,112,3.0,4.0,61,0.00,,,0.01,0,LWC V2.00 B727,2013-09-09 01:07:00,
2013-09-08 19:12:00,64.1,50.4,30.01,ESE,112,3.0,5.0,61,0.00,,,0.01,0,LWC V2.00 B727,2013-09-09 01:12:00,
2013-09-08 19:17:00,64.1,50.4,30.01,ESE,113,1.0,4.0,61,0.00,,,0.01,0,LWC V2.00 B727,2013-09-09 01:17:00,
2013-09-08 19:22:00,64.1,50.4,30.01,ESE,104,5.0,5.0,61,0.00,,,0.01,0,LWC V2.00 B727,2013-09-09 01:22:00,
2013-09-08 19:27:00,64.1,49.9,30.00,ESE,105,3.0,5.0,60,0.00,,,0.01,0,LWC V2.00 B727,2013-09-09 01:27:00,
2013-09-08 19:32:00,64.2,50.0,30.00,ESE,105,2.0,5.0,60,0.00,,,0.01,0,LWC V2.00 B727,2013-09-09 01:32:00,
2013-09-08 19:37:00,64.2,49.6,30.00,ESE,106,4.0,8.0,59,0.00,,,0.01,0,LWC V2.00 B727,2013-09-09 01:37:00,
2013-09-08 19:42:00,64.3,49.7,30.00,ESE,113,4.0,5.0,59,0.00,,,0.01,0,LWC V2.00 B727,2013-09-09 01:42:00,
2013-09-08 19:47:00,64.4,49.3,30.01,ESE,113,3.0,5.0,58,0.00,,,0.01,0,LWC V2.00 B727,2013-09-09 01:47:00,
2013-09-08 19:52:00,64.5,49.4,30.01,ESE,113,4.0,9.0,58,0.00,,,0.01,0,LWC V2.00 B727,2013-09-09 01:52:00,
2013-09-08 19:57:00,64.6,49.5,30.01,ESE,113,7.0,7.0,58,0.00,,,0.01,0,LWC V2.00 B727,2013-09-09 01:57:00,
2013-09-08 20:02:00,64.6,49.5,30.00,East,95,8.0,8.0,58,0.00,,,0.01,0,LWC V2.00 B727,2013-09-09 02:02:00,
2013-09-08 20:07:00,64.5,49.4,30.01,SE,125,4.0,7.0,58,0.00,,,0.01,0,LWC V2.00 B727,2013-09-09 02:07:00,
2013-09-08 20:12:00,64.4,49.3,30.00,ESE,122,2.0,5.0,58,0.00,,,0.01,0,LWC V2.00 B727,2013-09-09 02:12:00,
2013-09-08 20:17:00,64.3,48.3,30.01,SE,140,3.0,6.0,56,0.00,,,0.01,0,LWC V2.00 B727,2013-09-09 02:17:00,
2013-09-08 20:22:00,64.3,47.8,30.01,SE,140,3.0,4.0,55,0.00,,,0.01,0,LWC V2.00 B727,2013-09-09 02:22:00,
2013-09-08 20:27:00,64.3,48.3,30.01,SE,125,3.0,4.0,56,0.00,,,0.01,0,LWC V2.00 B727,2013-09-09 02:27:00,
2013-09-08 20:32:00,64.2,48.2,30.01,ESE,119,4.0,4.0,56,0.00,,,0.01,0,LWC V2.00 B727,2013-09-09 02:32:00,
2013-09-08 20:37:00,64.0,47.5,30.01,ESE,121,2.0,5.0,55,0.00,,,0.01,0,LWC V2.00 B727,2013-09-09 02:37:00,
2013-09-08 20:42:00,63.8,47.8,30.01,ESE,117,3.0,5.0,56,0.00,,,0.01,0,LWC V2.00 B727,2013-09-09 02:42:00,
2013-09-08 20:47:00,63.6,47.1,30.01,ESE,121,4.0,7.0,55,0.00,,,0.01,0,LWC V2.00 B727,2013-09-09 02:47:00,
2013-09-08 20:52:00,63.4,47.4,30.01,ESE,117,1.0,2.0,56,0.00,,,0.01,0,LWC V2.00 B727,2013-09-09 02:52:00,
2013-09-08 20:57:00,63.0,46.6,30.01,ESE,109,3.0,4.0,55,0.00,,,0.01,0,LWC V2.00 B727,2013-09-09 02:57:00,
2013-09-08 21:02:00,62.7,46.8,30.01,ESE,114,4.0,5.0,56,0.00,,,0.01,0,LWC V2.00 B727,2013-09-09 03:02:00,
2013-09-08 21:07:00,62.3,46.9,30.02,ESE,109,4.0,5.0,57,0.00,,,0.01,0,LWC V2.00 B727,2013-09-09 03:07:00,
2013-09-08 21:12:00,62.1,46.2,30.02,ESE,112,3.0,3.0,56,0.00,,,0.01,0,LWC V2.00 B727,2013-09-09 03:12:00,
2013-09-08 21:17:00,61.9,46.0,30.02,ESE,113,4.0,5.0,56,0.00,,,0.01,0,LWC V2.00 B727,2013-09-09 03:17:00,
2013-09-08 21:22:00,61.7,46.3,30.02,ESE,113,2.0,4.0,57,0.00,,,0.01,0,LWC V2.00 B727,2013-09-09 03:22:00,
2013-09-08 21:27:00,61.6,46.2,30.02,ESE,113,0.0,1.0,57,0.00,,,0.01,0,LWC V2.00 B727,2013-09-09 03:27:00,
2013-09-08 21:32:00,61.4,46.0,30.02,ESE,110,3.0,4.0,57,0.00,,,0.01,0,LWC V2.00 B727,2013-09-09 03:32:00,
2013-09-08 21:37:00,61.3,45.9,30.03,ESE,106,0.0,1.0,57,0.00,,,0.01,0,LWC V2.00 B727,2013-09-09 03:37:00,
2013-09-08 21:42:00,61.1,45.7,30.03,ESE,107,0.0,0.0,57,0.00,,,0.01,0,LWC V2.00 B727,2013-09-09 03:42:00,
2013-09-08 21:47:00,61.1,46.2,30.03,ESE,107,0.0,1.0,58,0.00,,,0.01,0,LWC V2.00 B727,2013-09-09 03:47:00,
2013-09-08 21:52:00,60.9,46.0,30.03,ESE,106,0.0,2.0,58,0.00,,,0.01,0,LWC V2.00 B727,2013-09-09 03:52:00,
2013-09-08 21:57:00,60.7,46.3,30.04,ESE,105,2.0,4.0,59,0.00,,,0.01,0,LWC V2.00 B727,2013-09-09 03:57:00,
2013-09-08 22:01:00,60.5,45.6,30.04,ESE,103,1.0,2.0,58,0.00,,,0.01,0,LWC V2.00 B727,2013-09-09 04:01:00,
2013-09-08 22:06:00,60.3,46.4,30.04,East,99,0.0,2.0,60,0.00,,,0.01,0,LWC V2.00 B727,2013-09-09 04:06:00,
2013-09-08 22:11:00,60.4,46.0,30.04,NW,309,0.0,4.0,59,0.00,,,0.01,0,LWC V2.00 B727,2013-09-09 04:11:00,
2013-09-08 22:16:00,60.5,46.1,30.05,NW,308,0.0,2.0,59,0.00,,,0.01,0,LWC V2.00 B727,2013-09-09 04:16:00,
2013-09-08 22:21:00,60.7,45.8,30.04,NW,308,0.0,3.0,58,0.00,,,0.01,0,LWC V2.00 B727,2013-09-09 04:21:00,
2013-09-08 22:26:00,61.0,45.2,30.05,NW,304,0.0,1.0,56,0.00,,,0.01,0,LWC V2.00 B727,2013-09-09 04:26:00,
2013-09-08 22:31:00,61.3,45.9,30.04,NW,304,0.0,1.0,57,0.00,,,0.01,0,LWC V2.00 B727,2013-09-09 04:31:00,
2013-09-08 22:36:00,61.6,45.7,30.04,NW,305,0.0,2.0,56,0.00,,,0.01,0,LWC V2.00 B727,2013-09-09 04:36:00,
2013-09-08 22:41:00,61.9,46.0,30.04,NW,305,0.0,0.0,56,0.00,,,0.01,0,LWC V2.00 B727,2013-09-09 04:41:00,
2013-09-08 22:46:00,62.1,45.7,30.04,WSW,245,0.0,2.0,55,0.00,,,0.01,0,LWC V2.00 B727,2013-09-09 04:46:00,
2013-09-08 22:51:00,62.2,45.3,30.04,WSW,245,2.0,2.0,54,0.00,,,0.01,0,LWC V2.00 B727,2013-09-09 04:51:00,
2013-09-08 22:56:00,62.3,45.4,30.04,WSW,245,0.0,0.0,54,0.00,,,0.01,0,LWC V2.00 B727,2013-09-09 04:56:00,
2013-09-08 23:01:00,62.4,46.0,30.04,WSW,245,0.0,0.0,55,0.00,,,0.01,0,LWC V2.00 B727,2013-09-09 05:01:00,
2013-09-08 23:06:00,62.4,46.0,30.04,WSW,245,0.0,0.0,55,0.00,,,0.01,0,LWC V2.00 B727,2013-09-09 05:06:00,
2013-09-08 23:11:00,62.3,46.4,30.04,WSW,245,1.0,2.0,56,0.00,,,0.01,0,LWC V2.00 B727,2013-09-09 05:11:00,
2013-09-08 23:16:00,62.0,46.6,30.04,WSW,245,0.0,0.0,57,0.00,,,0.01,0,LWC V2.00 B727,2013-09-09 05:16:00,
2013-09-08 23:21:00,61.7,45.8,30.04,WSW,245,0.0,0.0,56,0.00,,,0.01,0,LWC V2.00 B727,2013-09-09 05:21:00,
2013-09-08 23:26:00,61.3,46.8,30.05,WSW,245,0.0,1.0,59,0.00,,,0.01,0,LWC V2.00 B727,2013-09-09 05:26:00,
2013-09-08 23:31:00,60.9,46.5,30.05,WSW,245,0.0,0.0,59,0.00,,,0.01,0,LWC V2.00 B727,2013-09-09 05:31:00,
2013-09-08 23:37:00,60.4,46.4,30.05,WSW,245,0.0,1.0,60,0.00,,,0.01,0,LWC V2.00 B727,2013-09-09 05:37:00,
2013-09-08 23:42:00,60.0,46.1,30.05,WSW,245,0.0,0.0,60,0.00,,,0.01,0,LWC V2.00 B727,2013-09-09 05:42:00,
2013-09-08 23:46:00,59.6,46.1,30.05,WSW,245,0.0,1.0,61,0.00,,,0.01,0,LWC V2.00 B727,2013-09-09 05:46:00,
2013-09-08 23:51:00,59.0,45.6,30.05,WSW,245,0.0,0.0,61,0.00,,,0.01,0,LWC V2.00 B727,2013-09-09 05:51:00,
2013-09-08 23:56:00,59.0,46.0,30.05,WSW,245,0.0,0.0,62,0.00,,,0.01,0,LWC V2.00 B727,2013-09-09 05:56:00,